TimeCST,TemperatureF,Dew PointF,Humidity,Sea Level PressureIn,VisibilityMPH,Wind Direction,Wind SpeedMPH,Gust SpeedMPH,PrecipitationIn,Events,Conditions,WindDirDegrees,DateUTC
12:11 AM,35.6,28.4,75,30.23,10.0,Calm,Calm,-,N/A,,Overcast,0,2012-11-04 05:11:00
12:32 AM,35.6,28.4,75,30.23,10.0,North,3.5,-,N/A,,Overcast,10,2012-11-04 05:32:00
12:51 AM,35.6,26.6,70,30.23,10.0,NNE,3.5,-,N/A,,Overcast,30,2012-11-04 05:51:00
1:11 AM,35.6,26.6,70,30.23,10.0,Calm,Calm,-,N/A,,Overcast,0,2012-11-04 06:11:00
1:30 AM,35.6,26.6,70,30.23,10.0,Calm,Calm,-,N/A,,Overcast,0,2012-11-04 06:30:00
1:51 AM,35.6,26.6,70,30.23,10.0,NNE,4.6,-,N/A,,Overcast,30,2012-11-04 06:51:00
1:11 AM,35.6,26.6,70,30.22,10.0,NE,4.6,-,N/A,,Overcast,40,2012-11-04 07:11:00
1:31 AM,35.6,26.6,70,30.22,10.0,NE,4.6,-,N/A,,Overcast,50,2012-11-04 07:31:00
1:51 AM,33.8,24.8,70,30.22,10.0,ENE,3.5,-,N/A,,Overcast,60,2012-11-04 07:51:00
2:12 AM,33.8,24.8,70,30.22,10.0,NE,4.6,-,N/A,,Overcast,50,2012-11-04 08:12:00
2:31 AM,33.8,24.8,70,30.22,10.0,NE,4.6,-,N/A,,Overcast,50,2012-11-04 08:31:00
2:51 AM,33.8,24.8,70,30.22,10.0,Calm,Calm,-,N/A,,Overcast,0,2012-11-04 08:51:00
3:12 AM,33.8,24.8,70,30.22,10.0,Calm,Calm,-,N/A,,Overcast,0,2012-11-04 09:12:00
3:31 AM,32.0,24.8,75,30.22,10.0,Calm,Calm,-,N/A,,Overcast,0,2012-11-04 09:31:00
3:51 AM,30.2,24.8,80,30.22,10.0,Calm,Calm,-,N/A,,Mostly Cloudy,0,2012-11-04 09:51:00
4:12 AM,28.4,24.8,86,30.22,10.0,Calm,Calm,-,N/A,,Scattered Clouds,0,2012-11-04 10:12:00
4:31 AM,28.4,24.8,86,30.22,10.0,Calm,Calm,-,N/A,,Mostly Cloudy,0,2012-11-04 10:31:00
4:51 AM,30.2,26.6,86,30.22,10.0,NNE,3.5,-,N/A,,Overcast,20,2012-11-04 10:51:00
5:12 AM,30.2,26.6,86,30.22,10.0,North,3.5,-,N/A,,Overcast,360,2012-11-04 11:12:00
5:31 AM,30.2,24.8,80,30.23,10.0,North,3.5,-,N/A,,Overcast,10,2012-11-04 11:31:00
5:51 AM,30.2,24.8,80,30.22,10.0,NE,3.5,-,N/A,,Mostly Cloudy,50,2012-11-04 11:51:00
6:12 AM,28.4,24.8,86,30.22,10.0,North,3.5,-,N/A,,Mostly Cloudy,350,2012-11-04 12:12:00
6:31 AM,28.4,24.8,86,30.22,10.0,Calm,Calm,-,N/A,,Mostly Cloudy,0,2012-11-04 12:31:00
6:51 AM,28.4,24.8,86,30.22,10.0,NE,4.6,-,N/A,,Scattered Clouds,50,2012-11-04 12:51:00
7:11 AM,28.4,24.8,86,30.23,10.0,Calm,Calm,-,N/A,,Mostly Cloudy,0,2012-11-04 13:11:00
7:31 AM,30.2,24.8,80,30.23,10.0,Calm,Calm,-,N/A,,Overcast,0,2012-11-04 13:31:00
7:51 AM,30.2,26.6,86,30.23,10.0,Calm,Calm,-,N/A,,Overcast,0,2012-11-04 13:51:00
8:11 AM,30.2,26.6,86,30.23,10.0,NNE,3.5,-,N/A,,Overcast,30,2012-11-04 14:11:00
8:31 AM,32.0,26.6,80,30.22,10.0,NE,3.5,-,N/A,,Overcast,50,2012-11-04 14:31:00
8:51 AM,33.8,26.6,75,30.22,10.0,NE,6.9,-,N/A,,Mostly Cloudy,50,2012-11-04 14:51:00
9:11 AM,33.8,26.6,75,30.21,10.0,NNE,8.1,-,N/A,,Mostly Cloudy,30,2012-11-04 15:11:00
9:31 AM,35.6,26.6,70,30.21,10.0,ENE,5.8,-,N/A,,Overcast,70,2012-11-04 15:31:00
9:51 AM,35.6,26.6,70,30.21,10.0,ENE,4.6,-,N/A,,Overcast,60,2012-11-04 15:51:00
10:11 AM,37.4,26.6,65,30.21,10.0,ENE,3.5,-,N/A,,Overcast,60,2012-11-04 16:11:00
10:31 AM,37.4,26.6,65,30.21,10.0,East,3.5,-,N/A,,Overcast,90,2012-11-04 16:31:00
10:51 AM,37.4,26.6,65,30.20,10.0,East,5.8,-,N/A,,Overcast,80,2012-11-04 16:51:00
11:11 AM,39.2,26.6,61,30.20,10.0,ENE,3.5,-,N/A,,Overcast,60,2012-11-04 17:11:00
11:31 AM,39.2,26.6,61,30.20,10.0,NE,5.8,-,N/A,,Overcast,50,2012-11-04 17:31:00
11:51 AM,41.0,26.6,57,30.19,10.0,NNE,4.6,-,N/A,,Overcast,30,2012-11-04 17:51:00
12:11 PM,41.0,26.6,57,30.18,10.0,ESE,3.5,-,N/A,,Overcast,110,2012-11-04 18:11:00
12:32 PM,42.8,28.4,57,30.17,10.0,Calm,Calm,-,N/A,,Overcast,0,2012-11-04 18:32:00
12:51 PM,44.6,28.4,53,30.17,10.0,East,6.9,-,N/A,,Overcast,100,2012-11-04 18:51:00
1:11 PM,44.6,28.4,53,30.16,10.0,East,4.6,-,N/A,,Overcast,80,2012-11-04 19:11:00
1:32 PM,42.8,28.4,57,30.16,10.0,East,5.8,-,N/A,,Overcast,90,2012-11-04 19:32:00
1:51 PM,44.6,28.4,53,30.15,10.0,East,3.5,-,N/A,,Overcast,80,2012-11-04 19:51:00
2:11 PM,44.6,28.4,53,30.15,10.0,ESE,4.6,-,N/A,,Overcast,110,2012-11-04 20:11:00
2:32 PM,44.6,28.4,53,30.15,10.0,East,4.6,-,N/A,,Overcast,80,2012-11-04 20:32:00
2:51 PM,44.6,28.4,53,30.15,10.0,East,3.5,-,N/A,,Overcast,90,2012-11-04 20:51:00
3:11 PM,44.6,28.4,53,30.15,10.0,NE,4.6,-,N/A,,Overcast,50,2012-11-04 21:11:00
3:32 PM,44.6,28.4,53,30.15,10.0,Calm,Calm,-,N/A,,Overcast,0,2012-11-04 21:32:00
3:51 PM,44.6,28.4,53,30.14,10.0,NE,3.5,-,N/A,,Overcast,50,2012-11-04 21:51:00
4:11 PM,44.6,28.4,53,30.14,10.0,ENE,3.5,-,N/A,,Overcast,70,2012-11-04 22:11:00
4:32 PM,42.8,28.4,57,30.15,10.0,Calm,Calm,-,N/A,,Overcast,0,2012-11-04 22:32:00
4:51 PM,42.8,28.4,57,30.15,10.0,Calm,Calm,-,N/A,,Overcast,0,2012-11-04 22:51:00
5:11 PM,42.8,28.4,57,30.15,10.0,NNE,3.5,-,N/A,,Overcast,20,2012-11-04 23:11:00
5:31 PM,42.8,28.4,57,30.15,10.0,Calm,Calm,-,N/A,,Overcast,0,2012-11-04 23:31:00
5:51 PM,42.8,28.4,57,30.16,10.0,NE,4.6,-,N/A,,Overcast,50,2012-11-04 23:51:00
6:11 PM,42.8,28.4,57,30.16,10.0,ENE,3.5,-,N/A,,Overcast,60,2012-11-05 00:11:00
6:31 PM,42.8,28.4,57,30.16,10.0,NE,3.5,-,N/A,,Overcast,40,2012-11-05 00:31:00
6:51 PM,42.8,26.6,53,30.16,10.0,NE,3.5,-,N/A,,Overcast,40,2012-11-05 00:51:00
7:11 PM,41.0,26.6,57,30.16,10.0,NE,3.5,-,N/A,,Overcast,40,2012-11-05 01:11:00
7:31 PM,41.0,26.6,57,30.16,10.0,NE,5.8,-,N/A,,Overcast,40,2012-11-05 01:31:00
7:51 PM,41.0,26.6,57,30.16,10.0,NE,5.8,-,N/A,,Overcast,40,2012-11-05 01:51:00
8:11 PM,41.0,26.6,57,30.16,10.0,NE,5.8,-,N/A,,Overcast,40,2012-11-05 02:11:00
8:31 PM,41.0,26.6,57,30.17,10.0,NE,6.9,-,N/A,,Overcast,50,2012-11-05 02:31:00
8:51 PM,41.0,24.8,53,30.17,10.0,NE,6.9,-,N/A,,Overcast,40,2012-11-05 02:51:00
9:11 PM,39.2,24.8,56,30.17,10.0,NE,6.9,-,N/A,,Overcast,50,2012-11-05 03:11:00
9:31 PM,39.2,24.8,56,30.17,10.0,NE,8.1,-,N/A,,Overcast,50,2012-11-05 03:31:00
9:51 PM,39.2,24.8,56,30.17,10.0,NE,6.9,-,N/A,,Overcast,40,2012-11-05 03:51:00
10:11 PM,37.4,24.8,60,30.17,10.0,NNE,5.8,-,N/A,,Overcast,30,2012-11-05 04:11:00
10:31 PM,37.4,24.8,60,30.17,10.0,NE,8.1,-,N/A,,Overcast,40,2012-11-05 04:31:00
10:51 PM,37.4,24.8,60,30.17,10.0,NE,6.9,-,N/A,,Overcast,50,2012-11-05 04:51:00